Date String (YYYY-MM-DD hh:mm:ss) UTC,Instrument flags,absolute air pressure of the measurement (hPa),sample flow rate (lpm),inlet stack bypass flow (lpm),air temperature of the measurement (°C),ambient temperature measured by the external sensor (°C),aerosol sample conditioner tube jacket temperature (°C),OPC LED temperature (°C),internal box temperature (°C),relative humidity of the measurement (%),span deviation,mass concentration of particles derived from Lorenz-Mie calculation of OPC scattering (μg/m³),mass concentration of particles derived from Lorenz-Mie calculation of OPC scattering (μg/m³),mass concentration of particles derived from Lorenz-Mie calculation of OPC scattering (μg/m³)
DateTimeUTC,F1_M11,P_M11,Q1_M11,Q2_M11,T1_M11,T2_M11,T3_M11,T4_M11,T5_M11,U1_M11,ZSPAN_M11,X0_M11,X2_M11,X1_M11
2023-07-09 00:00:00,SystemResetWarning,0829.5,4.99,000.00,031.3,025.9,000.0,039.2,031.4,28.1,0000.0,0010.23,0006.02,0005.44
2023-07-09 00:01:00,SystemResetWarning,0829.4,5.01,000.00,031.2,024.9,000.0,039.1,031.2,28.7,0000.0,0010.33,0006.01,0005.42
2023-07-09 00:02:00,SystemResetWarning,0829.4,5.01,000.00,031.0,024.9,000.0,039.0,030.9,30.0,0000.0,0010.27,0005.97,0005.39
2023-07-09 00:03:00,SystemResetWarning,0829.5,5.00,000.00,030.9,025.2,000.0,039.0,030.8,31.6,0000.0,0010.13,0005.92,0005.36
2023-07-09 00:04:00,SystemResetWarning,0829.6,5.00,000.00,030.7,025.7,000.0,039.0,030.8,32.5,0000.0,0009.89,0005.88,0005.31
2023-07-09 00:05:00,SystemResetWarning,0829.7,5.00,000.00,030.7,026.2,000.0,039.0,030.9,33.2,0000.0,0009.44,0005.80,0005.27
2023-07-09 00:06:00,SystemResetWarning,0829.7,5.00,000.00,030.6,026.6,000.0,039.0,031.0,32.6,0001.0,0009.49,0005.76,0005.24
2023-07-09 00:07:00,SystemResetWarning,0829.8,4.99,000.00,030.6,026.9,000.0,039.0,031.1,32.6,0001.6,0009.54,0005.77,0005.22
2023-07-09 00:08:00,SystemResetWarning,0829.8,4.99,000.00,030.6,027.3,000.0,039.0,031.1,32.3,0001.2,0009.46,0005.77,0005.21
2023-07-09 00:09:00,SystemResetWarning,0829.8,5.00,000.00,030.6,027.5,000.0,039.0,031.2,33.6,0000.8,0009.55,0005.81,0005.23
2023-07-09 00:10:00,SystemResetWarning,0829.8,5.00,000.00,030.6,027.7,000.0,039.0,031.2,33.3,0000.1,0009.44,0005.83,0005.27
2023-07-09 00:11:00,SystemResetWarning,0829.8,5.00,000.00,030.6,027.9,000.0,039.0,031.3,33.2,-000.5,0009.37,0005.86,0005.29
2023-07-09 00:12:00,SystemResetWarning,0829.8,5.01,000.00,030.6,028.1,000.0,038.9,031.3,33.0,-000.7,0009.35,0005.89,0005.31
2023-07-09 00:13:00,SystemResetWarning,0829.8,5.00,000.00,030.6,028.2,000.0,038.9,031.4,32.9,-001.0,0009.32,0005.89,0005.33
2023-07-09 00:14:00,SystemResetWarning,0829.8,5.00,000.00,030.6,028.3,000.0,038.9,031.4,33.9,-000.9,0009.32,0005.90,0005.34
2023-07-09 00:15:00,SystemResetWarning,0829.7,4.98,000.00,030.6,027.8,000.0,038.9,031.4,33.4,-001.3,0009.31,0005.90,0005.34
2023-07-09 00:16:00,SystemResetWarning,0829.7,5.00,000.00,030.5,026.2,000.0,038.7,031.2,33.1,-001.3,0009.23,0005.91,0005.37
2023-07-09 00:17:00,SystemResetWarning,0829.7,5.01,000.00,030.5,025.7,000.0,038.6,031.1,32.9,-001.5,0009.29,0005.95,0005.40
2023-07-09 00:18:00,SystemResetWarning,0829.8,5.01,000.00,030.3,025.8,000.0,038.6,030.8,33.7,-001.8,0009.11,0005.96,0005.43
2023-07-09 00:19:00,SystemResetWarning,0829.8,5.00,000.00,030.2,026.2,000.0,038.6,030.9,34.2,-002.2,0009.20,0005.98,0005.45
2023-07-09 00:20:00,SystemResetWarning,0829.8,5.00,000.00,030.2,026.6,000.0,038.6,030.9,34.4,-002.6,0009.27,0005.99,0005.45
2023-07-09 00:21:00,SystemResetWarning,0829.8,5.00,000.00,030.1,026.9,000.0,038.6,031.0,34.2,-002.8,0009.32,0006.00,0005.45
2023-07-09 00:22:00,SystemResetWarning,0829.9,5.00,000.00,030.1,027.2,000.0,038.6,031.1,34.0,-002.3,0009.26,0005.99,0005.44
2023-07-09 00:23:00,SystemResetWarning,0830.0,5.00,000.00,030.1,027.5,000.0,038.6,031.1,33.3,-001.7,0009.22,0005.96,0005.44
2023-07-09 00:24:00,SystemResetWarning,0830.0,4.98,000.00,030.1,027.7,000.0,038.6,031.2,33.2,-001.4,0009.47,0005.97,0005.44
2023-07-09 00:25:00,SystemResetWarning,0830.0,5.01,000.00,030.1,027.9,000.0,038.6,031.2,33.8,-000.9,0009.53,0006.00,0005.45
2023-07-09 00:26:00,SystemResetWarning,0830.0,5.01,000.00,030.2,028.1,000.0,038.6,031.3,34.4,-000.6,0009.58,0006.02,0005.46
2023-07-09 00:27:00,SystemResetWarning,0830.1,5.00,000.00,030.2,028.2,000.0,038.6,031.3,34.5,-000.2,0009.58,0006.01,0005.47
2023-07-09 00:28:00,SystemResetWarning,0830.0,4.98,000.00,030.2,027.4,000.0,038.5,031.3,34.7,0000.1,0009.58,0006.03,0005.46
2023-07-09 00:29:00,SystemResetWarning,0830.0,5.01,000.00,030.2,026.0,000.0,038.4,031.1,35.3,-000.1,0009.63,0006.06,0005.46
2023-07-09 00:30:00,SystemResetWarning,0830.0,5.01,000.00,030.3,025.6,000.0,038.3,031.0,35.8,0000.0,0009.65,0006.05,0005.47
2023-07-09 00:31:00,SystemResetWarning,0830.0,5.00,000.00,030.4,025.9,000.0,038.4,031.0,35.9,0000.1,0009.74,0006.06,0005.48
2023-07-09 00:32:00,SystemResetWarning,0830.0,5.01,000.00,030.7,026.2,000.0,038.4,031.1,35.2,0000.1,0009.80,0006.08,0005.47
2023-07-09 00:33:00,SystemResetWarning,0830.0,4.96,000.00,031.0,026.6,000.0,038.4,031.3,34.1,0000.4,0009.87,0006.07,0005.47
2023-07-09 00:34:00,SystemResetWarning,0830.0,5.03,000.00,031.2,027.0,000.0,038.5,031.3,34.1,0000.4,0009.87,0006.07,0005.47
2023-07-09 00:35:00,SystemResetWarning,0830.0,5.00,000.00,031.3,027.3,000.0,038.6,031.4,34.3,0000.0,0010.01,0006.06,0005.46
2023-07-09 00:36:00,SystemResetWarning,0830.0,4.99,000.00,031.4,027.6,000.0,038.7,031.4,34.6,0000.0,0009.92,0006.03,0005.44
2023-07-09 00:37:00,SystemResetWarning,0830.0,5.00,000.00,031.4,027.8,000.0,038.9,031.4,34.3,0000.8,0009.86,0006.01,0005.44
2023-07-09 00:38:00,SystemResetWarning,0830.0,5.00,000.00,031.5,028.0,000.0,039.0,031.5,34.3,0000.0,0009.92,0006.03,0005.44
2023-07-09 00:39:00,SystemResetWarning,0830.0,5.01,000.00,031.5,028.2,000.0,039.1,031.5,34.5,0001.0,0009.96,0006.02,0005.44
2023-07-09 00:40:00,SystemResetWarning,0830.0,4.98,000.00,031.5,028.2,000.0,039.2,031.6,35.4,0001.3,0010.35,0006.03,0005.44
2023-07-09 00:41:00,SystemResetWarning,0830.0,5.02,000.00,031.7,027.1,000.0,039.1,031.7,35.5,0002.1,0010.59,0005.99,0005.43
2023-07-09 00:42:00,SystemResetWarning,0830.0,4.99,000.00,031.9,025.4,000.0,039.0,031.6,34.4,0001.7,0010.91,0006.00,0005.42
2023-07-09 00:43:00,SystemResetWarning,0830.0,4.99,000.00,031.9,024.9,000.0,039.0,031.4,34.3,0001.0,0011.62,0006.01,0005.44
2023-07-09 00:44:00,SystemResetWarning,0830.1,5.00,000.00,031.8,025.1,000.0,039.1,031.1,34.1,0001.6,0011.77,0006.03,0005.47
2023-07-09 00:45:00,SystemResetWarning,0830.1,5.01,000.00,031.7,025.6,000.0,039.2,031.1,34.6,0001.0,0011.69,0006.04,0005.50
2023-07-09 00:46:00,SystemResetWarning,0830.1,4.99,000.00,031.7,026.0,000.0,039.2,031.1,34.2,0000.2,0011.54,0006.09,0005.54
2023-07-09 00:47:00,SystemResetWarning,0830.1,4.99,000.00,031.6,026.5,000.0,039.3,031.2,34.8,-000.4,0011.51,0006.17,0005.60
2023-07-09 00:48:00,SystemResetWarning,0830.1,5.02,000.00,031.6,026.8,000.0,039.3,031.3,35.1,-000.6,0012.07,0006.25,0005.66
2023-07-09 00:49:00,SystemResetWarning,0830.1,4.97,000.00,031.7,027.2,000.0,039.4,031.4,35.1,-000.3,0012.13,0006.32,0005.72
2023-07-09 00:50:00,SystemResetWarning,0830.1,5.00,000.00,031.9,027.5,000.0,039.4,031.6,35.0,0000.2,0012.17,0006.40,0005.79
2023-07-09 00:51:00,SystemResetWarning,0830.1,5.03,000.00,032.1,027.7,000.0,039.5,031.7,34.5,-000.1,0011.88,0006.46,0005.85
2023-07-09 00:52:00,SystemResetWarning,0830.1,4.97,000.00,032.2,027.9,000.0,039.5,031.8,33.4,-000.6,0011.93,0006.52,0005.91
2023-07-09 00:53:00,SystemResetWarning,0830.1,5.01,000.00,032.3,028.1,000.0,039.6,031.8,33.2,-000.9,0011.60,0006.58,0005.97
2023-07-09 00:54:00,SystemResetWarning,0830.1,5.02,000.00,032.4,028.2,000.0,039.7,031.8,33.1,-001.2,0010.79,0006.59,0005.99
2023-07-09 00:55:00,SystemResetWarning,0830.1,4.99,000.00,032.4,028.3,000.0,039.8,031.9,32.7,-001.2,0010.66,0006.62,0006.01
2023-07-09 00:56:00,SystemResetWarning,0830.1,4.98,000.00,032.4,027.0,000.0,039.7,031.9,32.7,-001.0,0010.70,0006.63,0006.01
2023-07-09 00:57:00,SystemResetWarning,0830.0,5.02,000.00,032.4,025.9,000.0,039.6,031.7,32.5,-000.7,0010.69,0006.60,0006.00
2023-07-09 00:58:00,SystemResetWarning,0830.0,5.01,000.00,032.3,025.7,000.0,039.7,031.4,33.2,-000.2,0010.62,0006.58,0005.99
2023-07-09 00:59:00,SystemResetWarning,0830.0,5.00,000.00,032.1,026.0,000.0,039.7,031.3,34.2,0000.2,0010.14,0006.59,0005.99
